Погода в Шри-Джаяварденепура-Котте

Шри-Ланка     6°52′42″N   79°55′20″E
темп.,
°C
ветер,
м/с
пор.,
м/с
влажн.,
%
обл.,
%
осадки,
мм/ч
давл.,
гПа
погр.,
м
12 августа, пт
пт1223:30+25ю239098 0.2 1010114
02:30+25ююв129296 0.5 100956
05:30+24ю12947 1.0 100974
08:30+28зюз377616 0.8 10101054
11:30+30зюз48625 0.8 10101338
14:30+30зюз4762100 0.0 10071167
17:30+27юз2576100 0.0 1008880
20:30+26ююв2286100 0.1 101082
13 августа, сб
сб1323:30+25ююв2287100 0.2 101073
02:30+25ю2389100 0.3 100886
05:30+25ю2490100 0.6 1008124
08:30+28юз3575100 0.4 1010875
11:30+30зюз466361 0.6 10091333
14:30+30зюз4562100 0.1 10071319
17:30+27зюз357582 0.1 1007863
20:30+26ююз1287100 0.0 100976
14 августа, вс
вс1423:30+25ююв2591100 0.0 1009166
02:30+25ю2591100 0.1 1007183
05:30+25ююз2489100 0.3 1008136
08:30+28юз3574100 0.2 10101049
11:30+29зюз4563100 0.3 10101320
14:30+29зюз4564100 0.1 10081310
17:30+27юз3575100 0.1 1008831
20:30+25ю2387100 0.1 1010105
15 августа, пн
пн1523:30+25ю2489100 0.1 1009139
02:30+24ю249199 0.2 1008127
05:30+25ююз2589100 0.7 1008184
08:30+28юз357430 0.3 1010951
11:30+30зюз446491 0.4 10101254
14:30+29зюз446689 0.1 10071107
17:30+27юз4676100 0.1 1008690
20:30+25ююз2587100 0.0 1010237
16 августа, вт
вт1623:30+25ююз249093 0.1 1010192
02:30+25ююз379167 0.4 1009292
05:30+24ю259239 0.7 1009162
08:30+27ююз357649 0.3 1011800
11:30+30юз446363 0.4 10101254
14:30+29зюз4466100 0.1 10081152
17:30+27юз357683 0.1 1008701
20:30+25ююз13895 0.0 1010103